User: anonymous   Login
Location: Columbia
(38.9520°N, 92.3340°W)
Time: 03:38:30
(UTC-05:00)
Language:

Cosmos 1603 - Orbit

View from above orbital plane
View from above orbital plane
View from above satellite
View from above satellite

Ground track
Ground track

The orbit data is extracted from the following two-line orbital elements,

1 15333U 84106A   18113.54126838  .00000039  00000-0  45337-4 0  9993
2 15333  71.0242 162.4938 0017656  95.9622 264.3513 14.14064668732134
Epoch (UTC): 23 April 2018 12:59:25
Eccentricity: 0.0017656
inclination: 71.0242°
perigee height: 833 km
apogee height: 858 km
right ascension of ascending node: 162.4938°
argument of perigee: 95.9622°
revolutions per day: 14.14064668
mean anomaly at epoch: 264.3513°
orbit number at epoch: 73213

The dashed part of the orbit path shows where the satellite is in the earth's shadow,  

DLR